Total_Precipitation_Accumulation
0.00 0.00 0.00 0.00 0.00 0.00 0.00 0.00 0.00 0.00 0.00 0.00 0.00 0.00 0.00 0.00 0.00 0.00 0.00 0.01 0.01 0.02 0.03 0.04 0.05 0.07 0.09
0.00 0.00 0.00 0.00 0.00 0.00 0.00 0.00 0.00 0.00 0.00 0.00 0.00 0.00 0.00 0.00 0.00 0.00 0.00 0.00 0.00 0.01 0.02 0.02 0.03 0.04 0.07
0.00 0.00 0.00 0.00 0.00 0.00 0.00 0.00 0.00 0.00 0.00 0.00 0.00 0.00 0.00 0.00 0.00 0.00 0.00 0.00 0.00 0.00 0.00 0.01 0.02 0.02 0.04
0.00 0.00 0.00 0.00 0.00 0.00 0.00 0.00 0.00 0.00 0.00 0.00 0.00 0.00 0.00 0.00 0.00 0.00 0.00 0.00 0.00 0.00 0.00 0.00 0.01 0.02 0.04
0.00 0.00 0.00 0.00 0.00 0.00 0.00 0.00 0.00 0.00 0.00 0.00 0.00 0.00 0.00 0.00 0.00 0.00 0.00 0.00 0.00 0.00 0.00 0.00 0.02 0.04 0.05
0.01 0.00 0.00 0.00 0.00 0.00 0.01 0.01 0.01 0.00 0.00 0.00 0.00 0.00 0.00 0.00 0.00 0.00 0.00 0.00 0.00 0.00 0.00 0.00 0.02 0.03 0.03
0.00 0.00 0.00 0.00 0.00 0.01 0.01 0.01 0.01 0.00 0.00 0.00 0.00 0.00 0.00 0.00 0.00 0.00 0.00 0.00 0.00 0.00 0.01 0.01 0.02 0.03 0.04
0.00 0.00 0.00 0.00 0.00 0.00 0.00 0.00 0.00 0.00 0.00 0.01 0.00 0.00 0.00 0.00 0.00 0.00 0.00 0.00 0.00 0.00 0.01 0.02 0.02 0.03 0.04
0.00 0.00 0.00 0.00 0.00 0.00 0.00 0.01 0.01 0.00 0.00 0.00 0.00 0.01 0.00 0.00 0.00 0.00 0.00 0.00 0.00 0.01 0.02 0.03 0.05 0.06 0.06
0.00 0.00 0.00 0.00 0.00 0.00 0.00 0.02 0.04 0.04 0.00 0.01 0.02 0.04 0.12 0.01 0.00 0.00 0.00 0.00 0.00 0.01 0.02 0.03 0.05 0.09 0.12
0.00 0.00 0.00 0.00 0.00 0.00 0.00 0.01 0.06 0.07 0.00 0.02 0.07 0.05 0.12 0.06 0.00 0.00 0.00 0.01 0.03 0.02 0.01 0.02 0.03 0.06 0.12
0.00 0.00 0.00 0.00 0.00 0.00 0.00 0.00 0.01 0.04 0.00 0.00 0.09 0.09 0.17 0.17 0.03 0.00 0.00 0.00 0.06 0.07 0.04 0.04 0.03 0.03 0.07
0.00 0.00 0.00 0.00 0.00 0.00 0.00 0.00 0.00 0.00 0.00 0.00 0.01 0.03 0.19 0.28 0.15 0.03 0.01 0.01 0.01 0.07 0.11 0.08 0.05 0.05 0.08
0.00 0.00 0.00 0.00 0.00 0.00 0.00 0.01 0.01 0.00 0.00 0.00 0.00 0.02 0.17 0.15 0.11 0.11 0.01 0.08 0.05 0.07 0.15 0.13 0.06 0.07 0.08
0.00 0.00 0.00 0.00 0.00 0.00 0.00 0.01 0.04 0.01 0.00 0.00 0.00 0.00 0.03 0.08 0.16 0.09 0.09 0.11 0.12 0.23 0.28 0.23 0.06 0.03 0.05
0.00 0.01 0.01 0.01 0.01 0.00 0.00 0.02 0.05 0.02 0.01 0.00 0.01 0.03 0.03 0.00 0.03 0.16 0.28 0.24 0.23 0.35 0.39 0.40 0.17 0.02 0.04
0.01 0.01 0.01 0.01 0.01 0.02 0.02 0.03 0.04 0.02 0.01 0.00 0.01 0.11 0.28 0.12 0.01 0.07 0.43 0.52 0.57 0.60 0.47 0.33 0.28 0.09 0.07